Location: Cheb
(50.0670°N, 12.3670°E)
Time: 04:14:00
(UTC+02:00)

ISS - Pass Details

Date: 25 March 2019
Orbit: 408 x 410 km, 51.6° (Epoch: 20 April)

Event Time Altitude Azimuth Distance (km) Brightness Sun altitude
Rises 21:49:49 0° 277° (W) 2,336 0.7 -29.2°
Reaches altitude 10° 21:51:55 10° 280° (W) 1,475 -0.4 -29.5°
Enters shadow 21:52:02 11° 280° (W) 1,433 -0.5 -29.5°
